GEFSSE_500_meanwind_324.txt.gz
Wind_Speed
8 8 7 8 8 7 6 6 6 6 6 6 6 6 5 5 6 5 6 5 5 4 3 3 3 3 3 2 2 2 1 1 1 2 2 3 4 3 3 3 3 4 4
7 8 7 7 7 7 7 6 5 5 5 5 5 5 4 4 5 5 5 5 4 4 3 3 3 3 3 2 1 1 1 1 1 2 2 3 4 4 3 3 4 4 4
7 7 7 7 6 6 6 5 5 5 4 3 3 3 3 3 4 4 4 4 4 3 3 3 3 3 2 2 2 2 2 1 1 1 2 3 4 5 5 4 4 4 5
8 7 7 6 6 5 5 5 4 4 4 4 4 4 4 3 3 3 3 3 3 3 2 3 2 2 2 2 1 1 1 1 1 0 1 2 3 5 6 5 4 5 6
8 7 7 6 6 5 5 4 4 4 4 4 4 4 4 4 3 3 3 3 3 2 2 2 2 2 1 1 0 0 1 1 0 1 1 2 3 5 5 5 5 4 5
7 7 6 6 6 5 5 5 4 4 4 4 4 3 4 4 4 4 4 3 3 1 1 1 2 2 2 1 0 0 0 0 1 1 2 1 2 3 5 5 5 4 5
7 7 6 6 6 6 6 5 5 5 4 4 4 3 4 4 4 4 3 3 3 2 1 1 1 1 1 1 1 0 0 0 1 2 2 2 2 2 3 4 5 5 5
8 8 7 7 7 6 6 5 5 5 4 4 4 4 4 3 3 3 3 3 3 2 2 1 1 1 2 1 1 1 0 0 1 2 2 2 2 2 3 4 4 4 4
9 8 8 7 7 7 6 5 5 5 5 5 4 4 4 3 3 3 2 3 2 2 2 1 0 1 1 2 1 0 0 1 1 2 3 3 3 3 3 4 3 3 3
8 8 8 7 7 7 6 6 6 6 6 5 5 4 4 4 4 3 3 2 1 2 2 2 1 1 1 1 1 1 1 1 2 2 2 2 2 3 3 3 3 3 2
9 8 8 7 7 6 6 6 6 7 6 5 5 4 4 4 3 3 3 2 2 2 1 2 1 1 1 1 2 2 2 2 2 2 2 2 3 3 4 3 3 3 3
10 9 8 8 8 7 7 7 7 7 6 5 5 5 4 3 3 3 3 3 2 2 1 1 1 2 1 2 2 2 3 3 3 2 2 3 4 4 4 4 4 4 4
10 9 9 9 8 8 8 7 7 7 7 7 6 5 4 4 4 3 3 3 2 2 1 1 1 2 2 2 2 2 3 3 4 3 3 3 4 4 5 5 5 5 5
10 10 10 10 9 9 8 7 7 7 7 7 6 5 5 4 4 3 3 3 3 2 2 2 2 3 3 3 3 4 5 4 4 3 3 4 4 4 5 5 5 5 6
9 10 10 10 10 10 9 8 7 7 8 7 6 6 6 5 5 4 3 2 2 2 2 2 4 4 4 3 4 5 5 4 5 5 5 5 5 6 6 6 7 7 7
9 9 10 9 9 9 9 9 8 8 8 8 7 6 5 5 5 5 4 3 3 3 3 4 5 5 5 5 5 5 6 5 6 6 6 5 6 7 7 7 8 8 8
9 8 9 9 9 9 9 8 8 7 7 7 7 6 5 5 5 5 5 4 4 4 4 5 5 5 6 7 7 7 7 7 8 8 7 7 7 8 8 8 9 8 8
9 8 9 9 9 9 9 8 8 7 8 7 7 7 6 5 6 5 6 5 5 5 5 5 5 6 6 7 8 8 8 9 9 8 8 8 8 9 9 9 9 8 8
9 9 8 9 9 9 8 8 8 8 8 8 7 7 6 6 7 7 6 6 6 5 5 5 6 6 7 8 8 8 8 9 9 10 9 9 9 9 9 9 9 9 9
9 8 8 9 9 9 8 8 8 8 9 9 8 8 8 7 6 6 6 6 6 6 6 6 6 7 8 8 8 8 8 8 8 9 10 11 11 10 10 10 10 10 10
9 9 8 9 9 9 8 8 8 8 8 9 9 9 9 8 7 7 6 7 7 7 7 7 7 7 8 8 8 8 9 9 8 9 9 10 11 11 11 11 11 11 12
9 9 9 9 9 9 8 8 7 8 9 9 10 10 9 9 8 8 8 9 8 8 8 7 7 8 8 9 9 9 9 9 9 9 9 10 11 12 12 12 12 11 12
8 8 8 8 8 8 8 8 8 8 9 10 10 10 10 9 8 8 8 8 9 9 8 8 8 9 9 10 10 9 9 9 9 9 10 11 12 12 13 13 13 13 13
8 7 7 7 7 7 8 8 8 9 9 10 10 10 9 9 9 9 8 8 9 9 9 9 10 10 10 10 11 11 11 10 10 10 11 12 12 13 13 14 14 14 15
7 7 7 7 6 7 7 8 8 9 9 10 10 10 9 9 9 8 9 8 9 9 9 10 10 10 11 11 12 12 12 12 11 11 12 13 13 13 14 14 15 15 15
7 7 7 7 6 7 7 8 8 9 9 9 9 10 10 10 9 8 9 9 9 10 10 11 12 12 12 12 13 13 14 13 13 13 13 14 14 15 15 15 16 15 15

GEFSSE_500_meanwind_330.txt.gz
Wind_Speed
7 7 8 9 9 9 9 9 8 9 9 9 8 7 8 8 7 6 5 5 5 4 4 4 3 3 2 1 2 1 1 1 1 2 3 3 3 4 4 4 4 4 4
8 8 8 8 9 9 9 9 8 8 8 8 7 8 7 7 7 6 5 5 5 4 4 3 3 3 2 2 2 1 1 2 1 1 2 3 3 4 4 5 5 4 4
8 8 8 8 9 9 9 8 8 7 7 7 7 7 7 6 7 6 6 5 5 4 4 4 4 3 3 2 2 1 1 1 1 1 2 2 3 4 4 5 6 6 5
8 8 9 9 9 9 9 8 8 8 8 9 8 7 6 6 6 6 5 5 5 4 4 3 4 3 2 2 2 2 1 1 1 1 2 3 3 4 4 5 5 6 6
8 8 9 9 10 9 9 9 9 9 9 9 9 8 7 6 6 5 4 4 4 4 3 3 3 2 1 1 1 1 0 0 1 2 2 2 3 3 4 4 5 5 5
8 9 9 10 10 9 9 9 8 8 8 8 8 8 8 7 5 5 5 4 4 3 3 2 2 1 1 0 0 0 0 1 1 2 2 3 2 3 3 4 5 5 5
9 9 10 10 10 10 9 9 8 8 8 8 8 8 7 7 5 5 5 5 4 3 2 2 2 1 1 1 0 1 1 2 3 3 3 3 3 3 4 4 5 5 5
9 10 10 10 10 10 9 9 9 8 8 8 7 7 7 6 5 5 5 5 5 4 3 2 2 1 1 1 1 1 2 3 4 4 4 4 4 4 4 4 5 6 6
10 10 10 9 9 9 9 9 9 8 8 8 7 6 7 6 5 4 4 4 4 4 3 2 2 1 1 1 1 1 2 3 4 4 4 4 4 4 4 4 5 6 6
10 10 10 10 9 9 9 9 9 9 8 7 6 6 6 6 5 4 4 3 3 3 3 2 1 1 2 2 2 2 2 3 4 4 4 4 4 4 4 5 5 5 6
11 11 10 10 9 9 9 9 9 8 8 7 7 6 6 5 5 4 3 2 2 1 1 1 1 1 2 2 3 3 3 4 4 5 5 5 4 3 4 5 6 6 6
11 11 11 10 10 9 9 9 9 8 7 7 6 6 5 4 4 4 4 2 1 1 1 1 2 2 2 2 3 4 4 4 4 5 4 5 5 5 5 6 6 7 7
11 10 10 10 9 9 9 9 8 8 7 6 6 5 4 4 4 4 3 2 1 1 2 2 3 2 3 3 4 4 4 4 5 5 4 4 5 6 6 6 7 7 8
10 10 9 9 9 9 8 8 7 7 7 6 5 5 4 3 3 3 3 2 1 1 2 3 4 3 3 4 4 5 5 5 5 6 5 5 6 6 6 7 7 7 9
9 9 9 9 9 8 7 7 6 6 6 5 5 4 4 4 3 3 4 3 2 2 3 4 4 4 5 5 5 5 5 6 6 6 6 6 6 7 7 8 8 8 9
9 9 9 8 8 8 8 8 7 7 6 6 5 4 4 4 3 3 4 3 3 3 3 4 4 5 6 6 6 6 6 6 7 7 7 7 6 7 8 8 8 9 9
9 8 8 8 8 7 7 7 7 6 6 6 5 5 5 4 3 3 3 4 3 3 3 4 4 5 6 6 6 6 6 6 7 8 8 8 8 8 9 9 9 9 9
8 8 8 7 7 6 6 6 6 6 6 5 5 5 5 5 4 3 3 3 3 3 4 5 5 5 6 6 7 7 7 8 8 9 9 9 9 10 10 9 9 10 10
7 7 7 6 6 6 7 6 6 6 7 6 6 5 6 6 5 4 3 3 3 4 5 5 6 6 6 7 7 8 8 8 8 8 8 9 9 10 10 10 10 11 11
7 7 6 6 6 6 6 6 6 6 6 6 7 6 6 6 5 4 3 3 4 5 6 6 6 7 7 8 8 8 9 9 8 9 9 10 10 11 11 11 11 12 12
7 7 7 6 5 5 5 6 6 6 7 6 7 7 6 6 5 4 4 5 6 6 6 7 8 9 8 8 9 9 10 10 10 10 11 11 11 11 12 12 12 13 13
6 6 6 6 5 5 5 5 6 6 6 7 7 7 7 6 6 5 5 6 6 6 7 8 8 9 9 9 9 9 11 11 12 12 12 12 12 12 13 13 13 14 15
6 6 6 6 5 6 6 5 6 6 6 7 8 8 7 7 6 6 6 6 7 7 8 9 9 9 9 9 10 10 11 11 12 13 13 13 13 14 14 14 15 15 16
6 6 7 7 6 6 6 6 6 6 7 8 8 8 8 7 7 6 6 7 8 8 9 9 10 10 10 10 11 11 12 13 13 13 14 14 14 14 15 16 17 17 18
5 6 7 7 7 7 7 7 7 7 7 8 9 9 8 8 7 7 7 8 9 9 10 10 11 11 12 12 13 13 13 14 14 14 14 15 16 16 16 17 18 18 18
5 6 7 7 7 7 8 9 9 8 8 8 9 9 9 10 9 9 9 9 10 10 11 12 13 14 14 15 15 16 16 16 16 16 15 16 17 17 18 18 19 19 19

GEFSSE_500_meanwind_336.txt.gz
Wind_Speed
9 8 8 8 9 9 10 10 9 10 10 10 9 9 9 9 9 8 8 7 7 6 5 4 4 3 2 2 3 2 3 3 2 2 3 3 3 4 4 4 3 3 3
9 9 9 9 9 9 9 9 10 10 10 9 9 9 9 9 9 8 7 7 6 6 5 4 3 2 2 2 2 2 2 2 2 1 2 3 4 4 4 4 4 4 4
9 9 9 10 10 10 10 10 9 9 9 9 9 9 9 9 9 8 7 6 6 5 5 5 4 3 2 2 2 2 1 2 2 2 3 3 4 4 4 5 5 4 5
9 9 9 10 10 10 10 9 9 8 8 9 9 9 9 8 8 8 7 6 5 5 5 5 4 3 3 2 2 2 1 0 2 2 2 3 4 4 4 5 6 6 6
9 9 10 10 10 9 10 9 9 9 9 9 9 9 8 8 7 7 6 6 6 5 5 5 4 3 3 2 2 1 1 1 1 2 2 3 4 4 5 5 6 6 7
9 9 10 10 10 9 9 9 9 9 9 9 9 8 8 7 6 6 6 7 6 5 5 4 3 2 2 1 1 1 1 1 1 2 3 4 5 5 6 6 6 7 7
9 9 10 10 9 9 9 9 9 9 9 8 8 8 7 7 7 6 6 6 5 5 4 4 3 2 2 1 1 1 1 1 2 3 3 4 4 5 6 6 6 6 7
9 10 10 9 9 9 9 8 8 9 9 8 8 8 7 7 7 6 5 5 4 3 3 3 2 2 1 1 1 1 1 2 3 3 4 5 6 5 6 6 7 7 6
9 10 10 9 9 9 9 8 8 8 8 7 7 7 7 7 6 5 5 5 4 3 2 1 2 2 1 1 1 1 2 3 3 4 4 5 5 6 6 6 7 7 6
10 9 10 9 8 8 8 7 7 7 7 6 6 6 6 6 5 4 4 4 3 2 2 0 1 2 1 2 2 3 3 4 4 4 5 5 6 7 6 7 7 7 7
10 9 9 9 8 8 7 7 7 6 6 6 5 5 5 5 4 4 3 3 2 1 1 1 1 1 1 2 3 4 4 5 5 5 5 6 7 7 7 7 6 7 8
9 9 8 8 8 7 7 7 7 7 6 5 5 4 4 4 3 2 2 2 1 0 1 2 2 2 2 2 3 4 5 6 7 6 7 7 7 7 7 7 7 7 8
8 8 8 7 6 6 6 6 5 6 6 5 4 4 3 3 2 1 0 0 0 1 1 2 2 3 3 4 4 5 5 6 7 7 7 7 8 7 6 6 7 7 8
6 6 6 6 5 5 5 5 5 4 4 3 2 2 2 2 1 1 1 2 2 3 2 3 3 4 5 5 5 6 7 7 7 8 9 9 8 7 7 6 7 8 8
5 5 5 5 5 4 4 3 4 3 2 2 2 1 1 1 1 0 1 1 2 2 3 3 4 4 4 5 5 6 7 7 7 8 9 9 8 8 7 7 8 9 9
5 4 4 4 3 4 4 4 3 3 2 2 2 1 1 0 0 1 1 1 2 2 3 4 4 4 4 4 5 6 7 7 7 7 8 8 8 9 9 9 9 9 10
5 4 3 3 3 3 3 3 3 2 2 1 1 1 1 1 0 0 0 1 1 2 3 3 4 5 5 5 6 6 7 8 8 8 8 9 9 9 10 10 10 10 11
4 3 3 3 3 3 3 2 2 2 2 2 2 2 2 1 1 1 1 2 2 2 3 4 5 5 6 6 7 7 8 8 8 8 9 9 9 9 10 10 10 11 12
3 3 3 3 3 3 3 3 3 3 3 3 3 3 2 2 2 2 2 3 3 3 4 5 5 6 6 7 8 8 8 9 9 9 10 10 10 10 10 11 11 12 12
3 3 3 3 3 2 2 3 3 3 3 4 4 3 3 3 3 3 3 4 5 5 5 6 6 7 7 8 8 9 9 10 10 10 11 11 11 11 12 12 13 13 13
3 3 3 3 3 3 3 4 5 5 4 4 4 4 4 4 3 3 4 4 5 6 7 7 7 8 8 8 9 10 11 12 12 11 11 12 12 12 12 13 13 14 14
4 3 3 3 4 4 5 5 5 5 5 5 5 5 5 5 4 4 5 6 6 7 8 8 8 8 9 9 10 11 12 13 13 13 13 13 13 14 14 14 15 16 16
4 4 4 4 4 4 5 6 6 5 6 6 6 6 6 6 5 5 6 7 7 7 8 9 9 9 10 11 11 12 12 13 14 14 15 15 15 16 16 17 17 18 18
4 4 4 4 5 5 6 6 6 6 6 7 7 7 7 7 6 7 7 7 8 9 10 10 10 10 11 11 12 13 13 14 15 16 16 16 17 18 19 19 19 19 19
5 5 5 5 5 6 7 7 7 7 8 8 8 9 8 7 7 7 7 8 9 10 11 11 12 12 13 13 13 14 15 16 16 17 17 18 19 20 20 20 20 20 20
6 6 6 6 6 7 7 8 8 8 8 9 9 8 8 9 9 8 9 10 11 11 12 13 13 14 15 15 15 16 17 18 18 19 20 19 20 20 21 21 21 21 21

GEFSSE_500_meanwind_342.txt.gz
Wind_Speed
5 5 5 5 5 6 6 6 7 7 7 7 6 6 6 6 6 5 5 4 4 3 3 3 2 1 1 1 0 1 1 1 1 2 2 3 3 2 2 2 2 3 3
5 5 5 5 6 6 6 6 6 6 6 6 6 6 6 6 5 5 4 4 3 3 2 1 1 0 0 0 1 2 1 1 2 2 3 3 3 3 3 3 3 3 3
5 5 4 5 6 6 6 5 5 5 5 5 5 5 5 5 5 5 5 4 3 2 1 1 0 1 1 1 2 2 2 3 2 2 3 3 3 3 3 4 4 3 3
5 5 5 6 6 6 5 5 5 5 4 4 4 4 4 4 5 5 4 4 3 2 1 1 1 2 2 3 4 3 3 3 2 2 3 3 3 3 4 4 4 4 4
5 6 5 6 6 6 5 5 5 4 4 4 3 4 4 3 4 5 3 3 3 2 2 2 2 2 2 3 3 4 3 4 3 4 4 4 3 3 3 4 4 4 4
5 5 5 6 6 5 5 4 4 4 4 4 4 4 4 4 4 4 3 3 2 2 2 1 1 1 2 2 3 3 3 4 4 4 4 4 4 4 4 5 4 5 5
4 4 5 5 5 5 4 4 4 3 3 3 3 3 4 4 4 3 3 2 1 1 1 0 1 1 1 2 2 2 3 3 4 5 5 5 5 6 5 6 6 6 6
5 4 4 4 4 4 4 4 3 3 3 3 3 3 3 3 3 2 1 1 1 1 0 1 1 2 2 2 2 3 3 4 4 5 6 6 6 6 6 6 6 6 6
5 5 4 4 4 4 4 3 3 3 3 3 2 2 2 2 2 1 0 1 2 2 1 2 2 3 3 4 4 4 4 5 6 6 6 6 7 6 7 7 7 7 7
5 5 5 4 4 4 4 4 3 2 2 2 2 1 1 1 1 1 1 1 1 2 2 3 4 4 5 5 6 6 6 6 7 8 8 8 8 7 7 7 7 7 7
5 5 4 4 3 3 3 3 2 2 1 1 1 1 0 1 1 0 1 1 2 2 3 4 5 5 6 6 6 7 7 7 8 9 9 9 9 8 8 7 7 7 8
5 5 4 4 4 3 3 3 3 2 1 1 1 1 1 1 1 1 2 3 3 3 4 4 5 6 7 6 7 8 8 8 7 8 8 9 8 9 8 8 8 8 8
4 4 4 4 4 3 3 3 2 2 2 2 1 2 2 3 3 3 3 4 4 4 4 5 5 6 7 7 8 8 8 7 8 8 8 8 8 8 8 8 7 7 8
4 4 4 3 3 3 3 3 3 3 2 2 3 3 3 4 4 4 4 4 4 5 5 5 6 6 7 7 8 9 8 7 8 9 9 8 8 7 8 8 7 7 8
3 4 5 5 4 4 4 4 3 3 3 3 4 4 4 4 4 4 4 4 5 6 6 6 6 6 7 8 9 9 9 8 9 9 9 8 8 8 8 8 7 8 8
4 4 5 5 5 5 5 4 4 4 4 5 4 4 5 5 5 5 5 5 5 6 6 6 6 7 7 8 9 9 10 10 9 9 9 9 9 9 9 9 9 9 9
5 5 5 5 5 5 6 5 5 5 4 5 5 5 5 6 6 6 6 6 6 6 6 7 7 8 8 9 9 10 11 10 9 9 9 9 9 10 9 10 10 10 10
6 6 6 6 6 6 7 6 5 5 5 6 5 5 6 7 7 7 7 7 6 6 7 7 7 8 9 9 10 10 11 10 10 10 10 10 10 10 11 10 11 11 11
6 7 7 7 6 6 6 6 6 6 6 6 6 6 7 7 7 7 7 8 8 7 7 8 8 9 9 10 10 10 11 11 11 11 11 11 11 12 12 11 12 12 13
7 7 7 7 6 6 6 7 7 7 7 7 7 7 8 8 8 8 8 9 8 8 8 8 9 10 10 10 10 11 12 12 12 12 13 13 13 13 13 13 13 14 15
7 8 7 7 7 7 7 7 8 9 8 9 8 8 9 10 10 10 10 10 10 10 10 10 10 10 10 11 11 12 12 13 13 13 14 14 14 14 14 15 15 15 16
7 8 8 7 7 7 8 9 10 10 10 11 11 10 11 12 12 11 11 11 11 11 11 11 11 10 11 12 13 13 13 13 14 15 15 15 16 16 16 17 18 18 18
8 8 8 8 7 8 8 9 10 11 11 12 12 12 12 12 13 13 12 11 12 12 12 12 12 13 14 14 14 14 14 14 14 16 17 17 17 17 18 18 19 20 20
9 9 9 8 8 8 9 9 11 12 13 13 13 14 14 14 14 13 12 12 12 13 13 13 13 14 14 15 15 15 15 16 16 16 17 17 18 19 19 19 20 21 20
10 10 10 10 9 9 9 10 11 13 13 13 14 15 14 14 14 13 13 13 14 14 14 14 14 14 15 16 16 17 18 18 18 19 18 18 19 19 19 19 20 20 20
11 11 11 11 11 11 10 11 12 13 14 14 15 15 16 15 14 13 14 15 15 15 15 15 15 16 16 17 18 19 20 20 21 20 19 20 20 20 20 19 20 20 21